Location: Gomer
(43.2500°N, 0.1833°W)
Time: 00:06:51
(UTC+00:00)

Daily predictions for brighter satellites

Satellite Brightness Start Highest point End
(mag) Time Altitude Azimuth Time Altitude Azimuth Time Altitude Azimuth
CENTAUR R/B 4.1 02:27:13 25° E 02:27:13 25° E 02:31:55 10° NE
Cosmos 2082 Rocket 3.6 02:38:49 33° ENE 02:38:49 33° ENE 02:42:39 10° NE
ADEOS II 4.3 02:41:10 10° N 02:42:28 18° N 02:42:28 18° N
CZ-2C R/B 4.1 02:47:20 10° NE 02:51:09 28° E 02:51:09 28° E
Atlas Centaur 2 4.5 02:57:55 22° SSE 02:57:55 22° SSE 03:01:22 10° SE
COSMOS 2406 3.9 03:01:52 51° NE 03:01:52 51° NE 03:06:05 10° NNE
NOSS 3-2 (A) 4.1 03:01:33 44° ESE 03:01:33 44° ESE 03:06:57 10° NE
ATLAS CENTAUR R/B 3.5 03:08:06 27° NNE 03:08:06 27° NNE 03:10:26 10° NNE
Meteor 1-11 Rocket 3.8 03:12:25 10° N 03:18:14 80° NE 03:18:14 80° NE
Cosmos 1980 Rocket 3.2 03:23:06 35° SSE 03:23:06 35° SSE 03:26:15 10° SSE
Cosmos 44 Rocket 4.3 03:26:24 39° NNE 03:26:24 39° NNE 03:29:28 10° NNE
PAYLOAD A 4.2 03:23:08 10° NNE 03:28:00 63° ESE 03:28:15 62° ESE
SL-19 R/B 4.4 03:22:56 10° NNE 03:29:06 78° ESE 03:30:18 58° S
CBERS-1 4.1 03:29:30 10° NNE 03:33:56 65° N 03:33:56 65° N
Cosmos 2173 Rocket 4.1 03:33:19 31° S 03:36:22 73° E 03:42:26 10° NNE
Cosmos 1515 Rocket 3.9 03:37:57 65° ENE 03:37:57 65° ENE 03:42:05 10° NNE
Cosmos 1461 3.5 03:42:22 51° NE 03:42:22 51° NE 03:45:33 10° NE
ALOS 2.7 03:40:04 10° N 03:43:37 49° NNW 03:43:37 49° NNW
Cosmos 2278 3.9 03:39:10 10° NNW 03:44:50 69° ENE 03:50:27 10° SSE
SL-16 R/B 3.7 03:39:56 10° N 03:45:10 36° NE 03:50:21 10° ESE
ATLAS 3B CENTAUR R/B 4.3 03:43:26 28° SSW 03:46:47 35° S 03:57:22 10° ESE
FENGYUN 3A 3.9 03:46:43 10° N 03:51:34 51° WNW 03:51:34 51° WNW
Cosmos 1833 Rocket 4.1 03:54:43 23° NW 03:54:43 23° NW 03:58:27 10° N
CZ-3 R/B 4.3 03:39:43 27° SW 03:53:59 43° S 04:03:39 10° ESE
METEOR-M 4.1 03:48:49 10° NNE 03:54:13 83° ESE 03:56:56 30° S
IRS-P3 4.2 03:51:32 10° NNE 03:56:54 74° ESE 04:00:46 19° S
Cosmos 1741 Rocket 4.0 03:53:03 10° NNW 03:58:18 79° ENE 04:03:31 10° SSE
Cosmos 1331 Rocket 4.1 04:00:12 26° S 04:03:08 71° ESE 04:08:17 10° NNE
MINOTAUR IV R/B 4.4 04:02:33 10° NNW 04:07:03 84° WSW 04:11:31 10° SSE
YAOGAN 6 3.4 04:03:45 10° NNE 04:07:18 51° E 04:09:36 19° S
Lacrosse 5 rocket 4.2 04:07:29 10° SSE 04:10:22 17° ESE 04:13:14 10° E
Meteor 1-27 Rocket 4.1 04:10:33 41° WSW 04:11:40 46° WNW 04:17:21 10° N
Lacrosse 4 Rocket 1.9 04:07:49 10° NNW 04:12:11 63° ENE 04:16:35 10° SE
Cosmos 1484 Rocket 2.9 04:08:32 10° NNE 04:12:31 76° ESE 04:14:54 23° S
CZ-2C R/B 2.5 04:08:02 10° SSE 04:13:17 84° WSW 04:18:41 10° NNW
ARIANE 5 R/B 2.3 04:09:29 10° NNE 04:14:31 80° WNW 04:18:02 20° SSW
Helios 1B rocket 2.5 04:11:10 10° N 04:15:09 53° WNW 04:15:11 53° WNW
CENTAUR R/B 2.6 04:14:25 37° WSW 04:16:41 59° NW 04:23:40 10° NNE
Meteor 1-29 3.9 04:14:51 10° NNE 04:18:02 44° E 04:21:13 10° S
Cosmos 2100 Rocket 4.1 04:15:24 29° SW 04:18:22 51° WNW 04:24:23 10° N
ERS-1 4.4 04:13:54 10° NNE 04:19:08 79° WNW 04:23:49 13° SSW
Cosmos 1110 Rocket 3.9 04:16:35 27° SSW 04:19:26 76° WNW 04:24:38 10° NNE
Cosmos 2016 Rocket 3.9 04:13:43 10° S 04:20:06 82° W 04:26:31 10° N
CZ-2C R/B 3.9 04:14:53 10° NNE 04:20:29 56° E 04:25:47 10° S
Cosmos 2082 Rocket 2.9 04:20:42 32° WNW 04:21:37 33° NW 04:26:41 10° N
SL-08 R/B 4.4 04:16:38 10° S 04:22:43 89° E 04:28:54 10° N
Okean 1 3.5 04:23:13 47° W 04:23:31 49° WNW 04:27:27 10° N
Cosmos 1452 Rocket 3.8 04:24:11 35° WSW 04:25:50 45° WNW 04:30:55 10° N
USA 276 2.3 04:26:13 52° S 04:26:33 57° SSE 04:29:33 10° ENE
Meteor 1-18 Rocket 4.3 04:21:37 10° S 04:27:19 83° E 04:32:56 10° NNE
Cosmos 1869 Rocket 3.6 04:24:42 10° N 04:29:09 83° E 04:33:31 10° S
Cosmos 2360 Rocket 3.7 04:23:58 10° N 04:29:10 37° ENE 04:34:21 10° SE
CZ-2C R/B 3.0 04:25:24 10° N 04:29:46 33° WNW 04:30:30 31° W
Envisat 3.0 04:25:51 10° NNE 04:30:58 86° ESE 04:36:02 10° SSW
Cosmos 968 Rocket 4.2 04:26:17 10° NNW 04:31:21 54° ENE 04:36:22 10° SE
Cosmos 1816 Rocket 4.4 04:29:56 10° NNW 04:36:04 66° W 04:42:06 10° S
Cosmos 489 Rocket 4.5 04:31:41 10° NNW 04:37:58 87° ENE 04:44:11 10° SSE
Cosmos 2061 Rocket 3.9 04:34:19 10° SSW 04:40:29 68° W 04:46:41 10° N
SL-24 R/B - RUBIN 2 4.0 04:38:53 29° W 04:40:32 43° NW 04:44:43 10° NNE
DELTA 2 R/B (1) 4.0 04:37:45 26° WSW 04:40:35 48° SSW 04:45:57 10° ESE
H-2A R/B 2.8 04:38:10 10° NNE 04:41:50 74° E 04:45:31 10° S
ATLAS CENTAUR R/B 3.8 04:44:03 12° NW 04:45:24 13° NNW 04:47:36 10° N
PSLV R/B 3.9 04:42:48 10° NNE 04:47:07 68° ESE 04:51:20 10° S
Cosmos 1733 Rocket 4.3 04:43:51 10° N 04:48:06 45° ENE 04:52:17 10° SSE
DELTA 2 DEB (DPAF) 4.4 04:45:13 10° S 04:49:22 41° W 04:53:33 10° NNW
Meteor 2-4 Rocket 3.7 04:44:00 10° SSW 04:49:44 75° W 04:55:21 10° N
X-37B 1.2 04:49:24 30° SW 04:49:58 34° SSW 04:52:37 10° SE
Cosmos 1933 Rocket 4.4 04:47:09 10° NNW 04:50:53 27° W 04:54:35 10° SSW
CZ-2D R/B 3.9 04:47:30 10° N 04:51:12 38° WNW 04:54:21 14° SW
NOSS 3-2 (A) 4.1 04:48:58 20° W 04:52:08 35° NW 04:58:02 10° NNE
NOSS 3-2 (C) 3.4 04:48:33 17° WSW 04:52:41 58° NW 04:58:57 10° NNE
Cosmos 482 Debris 4.4 04:53:01 18° WNW 04:55:43 77° SW 05:01:24 10° SE
SL-08 R/B 3.6 04:52:43 10° S 04:57:10 44° W 05:01:45 10° NNW
Cosmos 1975 2.9 04:53:45 10° NNW 04:57:36 50° W 05:01:26 10° S
Cosmos 2322 Rocket 2.2 04:53:04 10° NNW 04:58:48 89° WSW 05:04:26 10° SSE
Cosmos 2237 4.2 04:54:54 10° NNW 05:00:37 82° WSW 05:06:18 10° SSE
Cosmos 2233 Rocket 4.0 04:55:09 10° SSW 05:01:25 66° W 05:07:43 10° N
Cosmos 1242 Rocket 2.2 04:58:02 10° NNW 05:01:27 69° W 05:04:48 10° S
OPS 6432 4.3 04:59:04 11° NW 05:01:59 59° SW 05:05:35 10° SSE
CZ-2C R/B 2.7 04:58:11 10° NNE 05:02:01 84° WNW 05:05:54 10° SSW
Cosmos 1980 Rocket 3.8 05:05:11 13° WSW 05:05:11 13° WSW 05:06:39 10° SW
COSMOS 2455 3.2 05:02:09 10° NNW 05:08:12 72° ENE 05:14:12 10° SE
USA 238 DEB 3.8 05:02:18 10° SW 05:08:29 54° NW 05:15:12 10° NNE
USA 238 3.8 05:02:21 10° SW 05:08:35 55° NW 05:15:18 10° NNE
Cosmos 1805 3.4 05:06:46 10° N 05:10:39 77° E 05:14:30 10° SSE
SKYMED 2 3.7 05:06:40 10° SSE 05:11:00 79° ENE 05:15:21 10° N
Tsikada Rocket 4.2 05:06:12 10° NNW 05:12:11 48° W 05:18:03 10° SSW
ATLAS 5 CENTAUR R/B 4.4 05:09:00 10° N 05:12:53 21° NE 05:17:19 10° E
FALCON 9 DEB 4.1 05:10:09 10° SSW 05:13:09 40° SE 05:16:10 10° ENE
GP-B 4.1 05:12:40 10° SW 05:16:17 24° W 05:19:55 10° NNW
CZ-4B R/B 3.7 05:11:01 10° NNE 05:16:19 83° ESE 05:21:35 10° SSW
SL-27 R/B 4.4 05:17:00 10° S 05:20:12 34° ESE 05:23:25 10° NE
Cosmos 1733 3.1 05:17:52 10° NNW 05:21:36 68° W 05:25:18 10° S
USA 290 2.1 05:22:42 10° NNW 05:25:56 87° WSW 05:29:07 10° SSE
Meteor 1-13 Rocket 4.4 05:22:00 10° S 05:27:35 79° E 05:33:08 10° NNE
Cosmos 1862 Rocket 3.5 05:23:51 10° SSW 05:28:18 73° W 05:32:46 10° N
SL-16 R/B 2.8 05:24:07 10° NW 05:29:14 36° WSW 05:34:20 10° S
NOAA 11 4.4 05:25:35 10° N 05:30:54 52° WNW 05:36:09 10° SW
Cosmos 1766 3.9 05:27:18 10° N 05:31:14 62° E 05:35:07 10° SSE
USA 234 3.5 05:26:52 10° NE 05:33:27 78° SE 05:39:59 10° SW
SJ 16-02 3.1 05:32:01 10° N 05:36:04 36° ENE 05:40:06 10° SE
